Time,TemperatureF,DewpointF,PressureIn,WindDirection,WindDirectionDegrees,WindSpeedMPH,WindSpeedGustMPH,Humidity,HourlyPrecipIn,Conditions,Clouds,dailyrainin,SoftwareType,DateUTC
2013-05-06 00:09:00,61.0,49.6,29.73,South,180,2.2,-999.0,66,-99.99,,,0.00,Acu-Link.com,2013-05-06 07:09:00,
2013-05-06 00:24:00,60.4,49.4,29.73,South,180,1.1,-999.0,67,-99.99,,,0.00,Acu-Link.com,2013-05-06 07:24:00,
2013-05-06 00:39:00,60.4,49.4,29.74,South,180,2.2,-999.0,67,-99.99,,,0.00,Acu-Link.com,2013-05-06 07:39:00,
2013-05-06 00:54:00,60.4,49.4,29.74,SW,225,1.1,-999.0,67,-99.99,,,0.00,Acu-Link.com,2013-05-06 07:54:00,
2013-05-06 01:10:00,60.4,49.4,29.75,South,180,1.7,-999.0,67,-99.99,,,0.00,Acu-Link.com,2013-05-06 08:10:00,
2013-05-06 01:25:00,60.8,49.4,29.75,South,180,1.7,-999.0,66,-99.99,,,0.00,Acu-Link.com,2013-05-06 08:25:00,
2013-05-06 01:40:00,60.8,49.4,29.75,SSE,157,1.1,-999.0,66,-99.99,,,0.00,Acu-Link.com,2013-05-06 08:40:00,
2013-05-06 01:55:00,60.6,49.2,29.75,SSW,202,0.0,-999.0,66,-99.99,,,0.00,Acu-Link.com,2013-05-06 08:55:00,
2013-05-06 02:10:00,60.6,49.6,29.75,South,180,1.7,-999.0,67,-99.99,,,0.00,Acu-Link.com,2013-05-06 09:10:00,
2013-05-06 02:25:00,60.8,49.4,29.75,WSW,247,2.7,-999.0,66,-99.99,,,0.00,Acu-Link.com,2013-05-06 09:25:00,
2013-05-06 02:41:00,60.3,49.3,29.74,SSE,157,0.0,-999.0,67,-99.99,,,0.00,Acu-Link.com,2013-05-06 09:41:00,
2013-05-06 02:56:00,59.7,49.5,29.74,SSE,157,2.7,-999.0,69,-99.99,,,0.00,Acu-Link.com,2013-05-06 09:56:00,
2013-05-06 03:11:00,59.2,49.4,29.75,SSE,157,0.0,-999.0,70,-99.99,,,0.00,Acu-Link.com,2013-05-06 10:11:00,
2013-05-06 03:26:00,58.3,49.3,29.74,SW,225,0.0,-999.0,72,-99.99,,,0.00,Acu-Link.com,2013-05-06 10:26:00,
2013-05-06 03:42:00,58.1,49.5,29.74,SW,225,0.0,-999.0,73,-99.99,,,0.00,Acu-Link.com,2013-05-06 10:42:00,
2013-05-06 03:57:00,57.0,49.2,29.74,South,180,0.0,-999.0,75,-99.99,,,0.00,Acu-Link.com,2013-05-06 10:57:00,
2013-05-06 04:12:00,57.2,49.7,29.74,SW,225,1.1,-999.0,76,-99.99,,,0.00,Acu-Link.com,2013-05-06 11:12:00,
2013-05-06 04:27:00,56.7,49.2,29.75,East,90,2.7,-999.0,76,-99.99,,,0.00,Acu-Link.com,2013-05-06 11:27:00,
2013-05-06 04:43:00,56.8,49.7,29.75,ESE,112,2.7,-999.0,77,-99.99,,,0.00,Acu-Link.com,2013-05-06 11:43:00,
2013-05-06 04:58:00,56.8,49.7,29.76,ESE,112,2.2,-999.0,77,-99.99,,,0.00,Acu-Link.com,2013-05-06 11:58:00,
2013-05-06 05:13:00,57.9,50.0,29.77,ESE,112,3.2,-999.0,75,-99.99,,,0.00,Acu-Link.com,2013-05-06 12:13:00,
2013-05-06 05:28:00,58.5,49.9,29.77,SSE,157,2.7,-999.0,73,-99.99,,,0.00,Acu-Link.com,2013-05-06 12:28:00,
2013-05-06 05:43:00,58.6,50.0,29.77,South,180,3.7,-999.0,73,-99.99,,,0.00,Acu-Link.com,2013-05-06 12:43:00,
2013-05-06 05:59:00,59.2,50.2,29.78,ENE,67,5.3,-999.0,72,-99.99,,,0.00,Acu-Link.com,2013-05-06 12:59:00,
2013-05-06 06:14:00,59.4,50.4,29.78,ESE,112,2.2,-999.0,72,-99.99,,,0.00,Acu-Link.com,2013-05-06 13:14:00,
2013-05-06 06:29:00,59.5,50.1,29.78,NE,45,3.7,-999.0,71,-99.99,,,0.00,Acu-Link.com,2013-05-06 13:29:00,
2013-05-06 06:45:00,59.9,50.1,29.79,ESE,112,1.7,-999.0,70,-99.99,,,0.00,Acu-Link.com,2013-05-06 13:45:00,
2013-05-06 07:00:00,60.3,50.5,29.79,ESE,112,4.2,-999.0,70,-99.99,,,0.00,Acu-Link.com,2013-05-06 14:00:00,
2013-05-06 07:15:00,60.4,50.6,29.80,East,90,2.7,-999.0,70,-99.99,,,0.00,Acu-Link.com,2013-05-06 14:15:00,
2013-05-06 07:31:00,60.4,51.0,29.80,SE,135,1.7,-999.0,71,-99.99,,,0.00,Acu-Link.com,2013-05-06 14:31:00,
2013-05-06 07:46:00,60.4,51.7,29.80,NE,45,2.2,-999.0,73,-99.99,,,0.00,Acu-Link.com,2013-05-06 14:46:00,
2013-05-06 08:01:00,60.4,52.1,29.81,ENE,67,0.0,-999.0,74,-99.99,,,0.00,Acu-Link.com,2013-05-06 15:01:00,
2013-05-06 08:16:00,60.6,52.3,29.81,NNW,337,0.0,-999.0,74,-99.99,,,0.00,Acu-Link.com,2013-05-06 15:16:00,
2013-05-06 08:31:00,61.0,52.7,29.81,NE,45,1.7,-999.0,74,-99.99,,,0.00,Acu-Link.com,2013-05-06 15:31:00,
2013-05-06 08:47:00,62.1,52.6,29.81,NNE,22,2.2,-999.0,71,-99.99,,,0.00,Acu-Link.com,2013-05-06 15:47:00,
2013-05-06 09:02:00,63.3,52.6,29.82,East,90,0.0,-999.0,68,-99.99,,,0.00,Acu-Link.com,2013-05-06 16:02:00,
2013-05-06 09:17:00,63.5,52.3,29.82,East,90,2.2,-999.0,67,-99.99,,,0.00,Acu-Link.com,2013-05-06 16:17:00,
2013-05-06 09:33:00,63.3,51.7,29.82,ENE,67,2.7,-999.0,66,-99.99,,,0.00,Acu-Link.com,2013-05-06 16:33:00,
2013-05-06 09:48:00,63.7,52.1,29.83,East,90,5.8,-999.0,66,-99.99,,,0.00,Acu-Link.com,2013-05-06 16:48:00,
2013-05-06 10:03:00,64.6,53.0,29.83,ESE,112,4.7,-999.0,66,-99.99,,,0.00,Acu-Link.com,2013-05-06 17:03:00,
2013-05-06 10:18:00,65.8,52.4,29.84,North,0,4.2,-999.0,62,-99.99,,,0.00,Acu-Link.com,2013-05-06 17:18:00,
2013-05-06 10:33:00,67.6,52.3,29.83,North,0,5.3,-999.0,58,-99.99,,,0.00,Acu-Link.com,2013-05-06 17:33:00,
2013-05-06 10:49:00,69.4,52.5,29.83,ENE,67,5.8,-999.0,55,-99.99,,,0.00,Acu-Link.com,2013-05-06 17:49:00,
2013-05-06 11:04:00,71.8,53.2,29.83,NNE,22,3.7,-999.0,52,-99.99,,,0.00,Acu-Link.com,2013-05-06 18:04:00,
2013-05-06 11:19:00,72.3,52.6,29.83,NNW,337,5.8,-999.0,50,-99.99,,,0.00,Acu-Link.com,2013-05-06 18:19:00,
2013-05-06 11:34:00,73.2,53.4,29.83,NNW,337,5.3,-999.0,50,-99.99,,,0.00,Acu-Link.com,2013-05-06 18:34:00,
2013-05-06 11:49:00,70.5,51.5,29.83,North,0,2.7,-999.0,51,-99.99,,,0.00,Acu-Link.com,2013-05-06 18:49:00,
2013-05-06 12:05:00,69.8,51.9,29.83,NE,45,2.7,-999.0,53,-99.99,,,0.00,Acu-Link.com,2013-05-06 19:05:00,
2013-05-06 12:20:00,75.0,51.6,29.82,NNW,337,3.2,-999.0,44,-99.99,,,0.00,Acu-Link.com,2013-05-06 19:20:00,
2013-05-06 12:35:00,77.2,51.0,29.81,NNW,337,4.2,-999.0,40,-99.99,,,0.00,Acu-Link.com,2013-05-06 19:35:00,
2013-05-06 12:50:00,76.6,50.5,29.81,ESE,112,3.2,-999.0,40,-99.99,,,0.00,Acu-Link.com,2013-05-06 19:50:00,
2013-05-06 13:05:00,73.6,50.3,29.80,NW,315,3.7,-999.0,44,-99.99,,,0.00,Acu-Link.com,2013-05-06 20:05:00,
2013-05-06 13:21:00,77.2,50.3,29.80,West,270,3.7,-999.0,39,-99.99,,,0.00,Acu-Link.com,2013-05-06 20:21:00,
2013-05-06 13:36:00,74.5,49.2,29.80,NE,45,2.7,-999.0,41,-99.99,,,0.00,Acu-Link.com,2013-05-06 20:36:00,
2013-05-06 13:51:00,75.6,49.6,29.79,NNE,22,2.7,-999.0,40,-99.99,,,0.00,Acu-Link.com,2013-05-06 20:51:00,
2013-05-06 14:06:00,77.9,50.2,29.80,West,270,4.7,-999.0,38,-99.99,,,0.00,Acu-Link.com,2013-05-06 21:06:00,
2013-05-06 14:22:00,73.9,50.0,29.79,NE,45,4.2,-999.0,43,-99.99,,,0.00,Acu-Link.com,2013-05-06 21:22:00,
2013-05-06 14:37:00,73.9,51.2,29.79,WNW,292,4.2,-999.0,45,-99.99,,,0.00,Acu-Link.com,2013-05-06 21:37:00,
2013-05-06 14:52:00,77.4,51.2,29.79,NNW,337,2.7,-999.0,40,-99.99,,,0.00,Acu-Link.com,2013-05-06 21:52:00,
2013-05-06 15:07:00,74.7,51.3,29.79,ESE,112,4.2,-999.0,44,-99.99,,,0.00,Acu-Link.com,2013-05-06 22:07:00,
2013-05-06 15:22:00,75.0,51.0,29.78,NNE,22,6.8,-999.0,43,-99.99,,,0.00,Acu-Link.com,2013-05-06 22:22:00,
2013-05-06 15:38:00,75.4,51.3,29.78,North,0,7.3,-999.0,43,-99.99,,,0.00,Acu-Link.com,2013-05-06 22:38:00,
2013-05-06 15:53:00,77.2,52.3,29.77,NNE,22,5.3,-999.0,42,-99.99,,,0.00,Acu-Link.com,2013-05-06 22:53:00,
2013-05-06 16:08:00,76.5,50.4,29.76,NNE,22,6.8,-999.0,40,-99.99,,,0.00,Acu-Link.com,2013-05-06 23:08:00,
2013-05-06 16:23:00,76.8,50.6,29.76,SE,135,6.8,-999.0,40,-99.99,,,0.00,Acu-Link.com,2013-05-06 23:23:00,
2013-05-06 16:39:00,76.3,50.2,29.75,WNW,292,3.2,-999.0,40,-99.99,,,0.00,Acu-Link.com,2013-05-06 23:39:00,
2013-05-06 16:54:00,76.1,50.0,29.75,South,180,2.2,-999.0,40,-99.99,,,0.00,Acu-Link.com,2013-05-06 23:54:00,
2013-05-06 17:09:00,75.9,50.5,29.75,North,0,6.3,-999.0,41,-99.99,,,0.00,Acu-Link.com,2013-05-07 00:09:00,
2013-05-06 17:25:00,74.7,50.1,29.76,NW,315,3.2,-999.0,42,-99.99,,,0.00,Acu-Link.com,2013-05-07 00:25:00,
2013-05-06 17:40:00,75.2,49.2,29.76,WNW,292,1.7,-999.0,40,-99.99,,,0.00,Acu-Link.com,2013-05-07 00:40:00,
2013-05-06 17:55:00,74.1,49.5,29.76,NW,315,6.3,-999.0,42,-99.99,,,0.00,Acu-Link.com,2013-05-07 00:55:00,
2013-05-06 18:10:00,72.9,49.7,29.76,WNW,292,7.3,-999.0,44,-99.99,,,0.00,Acu-Link.com,2013-05-07 01:10:00,
2013-05-06 18:25:00,68.2,51.9,29.76,West,270,11.9,-999.0,56,-99.99,,,0.00,Acu-Link.com,2013-05-07 01:25:00,
2013-05-06 18:40:00,66.7,51.0,29.76,WNW,292,16.1,-999.0,57,-99.99,,,0.00,Acu-Link.com,2013-05-07 01:40:00,
2013-05-06 18:55:00,65.8,51.1,29.77,West,270,7.3,-999.0,59,-99.99,,,0.00,Acu-Link.com,2013-05-07 01:55:00,
2013-05-06 19:10:00,65.7,50.5,29.79,WNW,292,2.2,-999.0,58,-99.99,,,0.00,Acu-Link.com,2013-05-07 02:10:00,
2013-05-06 19:25:00,63.5,53.1,29.79,SSW,202,2.7,-999.0,69,-99.99,,,0.00,Acu-Link.com,2013-05-07 02:25:00,
2013-05-06 19:41:00,61.0,54.4,29.81,South,180,2.2,-999.0,79,-99.99,,,0.01,Acu-Link.com,2013-05-07 02:41:00,
2013-05-06 19:56:00,59.5,54.7,29.82,West,270,3.7,-999.0,84,-99.99,,,0.08,Acu-Link.com,2013-05-07 02:56:00,
2013-05-06 20:11:00,59.2,55.0,29.83,SSE,157,0.0,-999.0,86,-99.99,,,0.10,Acu-Link.com,2013-05-07 03:11:00,
2013-05-06 20:26:00,58.8,54.6,29.83,NNW,337,3.2,-999.0,86,-99.99,,,0.15,Acu-Link.com,2013-05-07 03:26:00,
2013-05-06 20:42:00,58.6,55.1,29.83,NNE,22,2.2,-999.0,88,-99.99,,,0.17,Acu-Link.com,2013-05-07 03:42:00,
2013-05-06 20:57:00,58.5,55.0,29.82,West,270,2.2,-999.0,88,-99.99,,,0.18,Acu-Link.com,2013-05-07 03:57:00,
2013-05-06 21:12:00,58.5,54.0,29.83,WNW,292,2.2,-999.0,85,-99.99,,,0.19,Acu-Link.com,2013-05-07 04:12:00,
2013-05-06 21:28:00,58.3,54.1,29.83,NNE,22,2.7,-999.0,86,-99.99,,,0.19,Acu-Link.com,2013-05-07 04:28:00,
2013-05-06 21:43:00,59.0,54.5,29.84,WNW,292,5.3,-999.0,85,-99.99,,,0.19,Acu-Link.com,2013-05-07 04:43:00,
2013-05-06 21:58:00,59.0,54.5,29.84,WSW,247,3.2,-999.0,85,-99.99,,,0.19,Acu-Link.com,2013-05-07 04:58:00,
2013-05-06 22:14:00,59.2,55.0,29.85,West,270,2.2,-999.0,86,-99.99,,,0.19,Acu-Link.com,2013-05-07 05:14:00,
2013-05-06 22:29:00,59.0,55.4,29.85,South,180,3.2,-999.0,88,-99.99,,,0.19,Acu-Link.com,2013-05-07 05:29:00,
2013-05-06 22:44:00,58.6,55.1,29.86,SSW,202,3.7,-999.0,88,-99.99,,,0.19,Acu-Link.com,2013-05-07 05:44:00,
2013-05-06 22:59:00,58.1,54.6,29.86,NNW,337,1.1,-999.0,88,-99.99,,,0.19,Acu-Link.com,2013-05-07 05:59:00,
2013-05-06 23:14:00,58.1,54.6,29.87,WSW,247,2.7,-999.0,88,-99.99,,,0.19,Acu-Link.com,2013-05-07 06:14:00,
2013-05-06 23:30:00,58.1,53.9,29.87,SSE,157,1.7,-999.0,86,-99.99,,,0.19,Acu-Link.com,2013-05-07 06:30:00,
2013-05-06 23:45:00,58.1,53.9,29.87,SW,225,3.2,-999.0,86,-99.99,,,0.19,Acu-Link.com,2013-05-07 06:45:00,